Year,Month,Day,Hour,Minute,Value (Times are PST for temperature in C)
2017,07,17,00,00,10.80
2017,07,17,00,01,10.80
2017,07,17,00,02,10.80
2017,07,17,00,03,10.80
2017,07,17,00,04,10.80
2017,07,17,00,05,10.80
2017,07,17,00,06,10.80
2017,07,17,00,07,10.70
2017,07,17,00,08,10.70
2017,07,17,00,09,10.70
2017,07,17,00,10,10.70
2017,07,17,00,11,10.60
2017,07,17,00,12,10.60
2017,07,17,00,13,10.60
2017,07,17,00,14,10.60
2017,07,17,00,15,10.60
2017,07,17,00,16,10.50
2017,07,17,00,17,10.50
2017,07,17,00,18,10.50
2017,07,17,00,19,10.50
2017,07,17,00,20,10.50
2017,07,17,00,21,10.50
2017,07,17,00,22,10.50
2017,07,17,00,23,10.50
2017,07,17,00,24,10.50
2017,07,17,00,25,10.50
2017,07,17,00,26,10.50
2017,07,17,00,27,10.50
2017,07,17,00,28,10.50
2017,07,17,00,29,10.50
2017,07,17,00,30,10.50
2017,07,17,00,31,10.50
2017,07,17,00,32,10.50
2017,07,17,00,33,10.50
2017,07,17,00,34,10.40
2017,07,17,00,35,10.40
2017,07,17,00,36,10.40
2017,07,17,00,37,10.40
2017,07,17,00,38,10.40
2017,07,17,00,39,10.40
2017,07,17,00,40,10.30
2017,07,17,00,41,10.30
2017,07,17,00,42,10.30
2017,07,17,00,43,10.30
2017,07,17,00,44,10.30
2017,07,17,00,45,10.30
2017,07,17,00,46,10.30
2017,07,17,00,47,10.30
2017,07,17,00,48,10.20
2017,07,17,00,49,10.20
2017,07,17,00,50,10.20
2017,07,17,00,51,10.20
2017,07,17,00,52,10.10
2017,07,17,00,53,10.10
2017,07,17,00,54,10.10
2017,07,17,00,55,10.00
2017,07,17,00,56,10.00
2017,07,17,00,57,9.90
2017,07,17,00,58,9.90
2017,07,17,00,59,9.90
2017,07,17,01,00,9.90
2017,07,17,01,01,9.90
2017,07,17,01,02,9.80
2017,07,17,01,03,9.80
2017,07,17,01,04,9.80
2017,07,17,01,05,9.90
2017,07,17,01,06,9.90
2017,07,17,01,07,9.90
2017,07,17,01,08,9.90
2017,07,17,01,09,9.90
2017,07,17,01,10,9.90
2017,07,17,01,11,9.90
2017,07,17,01,12,9.90
2017,07,17,01,13,9.90
2017,07,17,01,14,9.90
2017,07,17,01,15,9.90
2017,07,17,01,16,9.90
2017,07,17,01,17,9.90
2017,07,17,01,18,9.90
2017,07,17,01,19,9.80
2017,07,17,01,20,9.80
2017,07,17,01,21,9.80
2017,07,17,01,22,9.80
2017,07,17,01,23,9.80
2017,07,17,01,24,9.70
2017,07,17,01,25,9.70
2017,07,17,01,26,9.70
2017,07,17,01,27,9.70
2017,07,17,01,28,9.70
2017,07,17,01,29,9.70
2017,07,17,01,30,9.70
2017,07,17,01,31,9.70
2017,07,17,01,32,9.70
2017,07,17,01,33,9.70
2017,07,17,01,34,9.70
2017,07,17,01,35,9.70
2017,07,17,01,36,9.70
2017,07,17,01,37,9.70
2017,07,17,01,38,9.60
2017,07,17,01,39,9.60
2017,07,17,01,40,9.60
2017,07,17,01,41,9.60
2017,07,17,01,42,9.60
2017,07,17,01,43,9.50
2017,07,17,01,44,9.50
2017,07,17,01,45,9.50
2017,07,17,01,46,9.50
2017,07,17,01,47,9.50
2017,07,17,01,48,9.50
2017,07,17,01,49,9.50
2017,07,17,01,50,9.40
2017,07,17,01,51,9.40
2017,07,17,01,52,9.40
2017,07,17,01,53,9.40
2017,07,17,01,54,9.50
2017,07,17,01,55,9.50
2017,07,17,01,56,9.50
2017,07,17,01,57,9.50
2017,07,17,01,58,9.60
2017,07,17,01,59,9.60
2017,07,17,02,00,9.60
2017,07,17,02,01,9.60
2017,07,17,02,02,9.60
2017,07,17,02,03,9.70
2017,07,17,02,04,9.70
2017,07,17,02,05,9.70
2017,07,17,02,06,9.70
2017,07,17,02,07,9.70
2017,07,17,02,08,9.70
2017,07,17,02,09,9.70
2017,07,17,02,10,9.70
2017,07,17,02,11,9.70
2017,07,17,02,12,9.70
2017,07,17,02,13,9.60
2017,07,17,02,14,9.60
2017,07,17,02,15,9.60
2017,07,17,02,16,9.60
2017,07,17,02,17,9.60
2017,07,17,02,18,9.60
2017,07,17,02,19,9.60
2017,07,17,02,20,9.60
2017,07,17,02,21,9.60
2017,07,17,02,22,9.60
2017,07,17,02,23,9.60
2017,07,17,02,24,9.50
2017,07,17,02,25,9.50
2017,07,17,02,26,9.50
2017,07,17,02,27,9.40
2017,07,17,02,28,9.40
2017,07,17,02,29,9.40
2017,07,17,02,30,9.30
2017,07,17,02,31,9.30
2017,07,17,02,32,9.30
2017,07,17,02,33,9.30
2017,07,17,02,34,9.30
2017,07,17,02,35,9.30
2017,07,17,02,36,9.30
2017,07,17,02,37,9.30
2017,07,17,02,38,9.30
2017,07,17,02,39,9.30
2017,07,17,02,40,9.30
2017,07,17,02,41,9.30
2017,07,17,02,42,9.20
2017,07,17,02,43,9.30
2017,07,17,02,44,9.30
2017,07,17,02,45,9.30
2017,07,17,02,46,9.30
2017,07,17,02,47,9.30
2017,07,17,02,48,9.40
2017,07,17,02,49,9.40
2017,07,17,02,50,9.40
2017,07,17,02,51,9.40
2017,07,17,02,52,9.40
2017,07,17,02,53,9.40
2017,07,17,02,54,9.40
2017,07,17,02,55,9.40
2017,07,17,02,56,9.40
2017,07,17,02,57,9.40
2017,07,17,02,58,9.30
2017,07,17,02,59,9.30
2017,07,17,03,00,9.20
2017,07,17,03,01,9.20
2017,07,17,03,02,9.20
2017,07,17,03,03,9.10
2017,07,17,03,04,9.10
2017,07,17,03,05,9.00
2017,07,17,03,06,9.00
2017,07,17,03,07,9.00
2017,07,17,03,08,8.90
2017,07,17,03,09,8.90
2017,07,17,03,10,8.90
2017,07,17,03,11,8.90
2017,07,17,03,12,8.80
2017,07,17,03,13,8.80
2017,07,17,03,14,8.80
2017,07,17,03,15,8.80
2017,07,17,03,16,8.80
2017,07,17,03,17,8.80
2017,07,17,03,18,8.80
2017,07,17,03,19,8.80
2017,07,17,03,20,8.80
2017,07,17,03,21,8.90
2017,07,17,03,22,8.90
2017,07,17,03,23,8.90
2017,07,17,03,24,8.90
2017,07,17,03,25,8.90
2017,07,17,03,26,8.90
2017,07,17,03,27,8.90
2017,07,17,03,28,8.90
2017,07,17,03,29,8.90
2017,07,17,03,30,9.00
2017,07,17,03,31,8.90
2017,07,17,03,32,9.00
2017,07,17,03,33,9.00
2017,07,17,03,34,9.00
2017,07,17,03,35,9.00
2017,07,17,03,36,8.90
2017,07,17,03,37,8.90
2017,07,17,03,38,8.90
2017,07,17,03,39,8.90
2017,07,17,03,40,8.80
2017,07,17,03,41,8.80
2017,07,17,03,42,8.80
2017,07,17,03,43,8.80
2017,07,17,03,44,8.70
2017,07,17,03,45,8.70
2017,07,17,03,46,8.70
2017,07,17,03,47,8.70
2017,07,17,03,48,8.70
2017,07,17,03,49,8.70
2017,07,17,03,50,8.70
2017,07,17,03,51,8.70
2017,07,17,03,52,8.70
2017,07,17,03,53,8.70
2017,07,17,03,54,8.70
2017,07,17,03,55,8.80
2017,07,17,03,56,8.80
2017,07,17,03,57,8.80
2017,07,17,03,58,8.80
2017,07,17,03,59,8.80
2017,07,17,04,00,8.80
2017,07,17,04,01,8.80
2017,07,17,04,02,8.80
2017,07,17,04,03,8.80
2017,07,17,04,04,8.80
2017,07,17,04,05,8.80
2017,07,17,04,06,8.70
2017,07,17,04,07,8.70
2017,07,17,04,08,8.70
2017,07,17,04,09,8.60
2017,07,17,04,10,8.60
2017,07,17,04,11,8.60
2017,07,17,04,12,8.50
2017,07,17,04,13,8.50
2017,07,17,04,14,8.50
2017,07,17,04,15,8.40
2017,07,17,04,16,8.40
2017,07,17,04,17,8.40
2017,07,17,04,18,8.40
2017,07,17,04,19,8.40
2017,07,17,04,20,8.40
2017,07,17,04,21,8.40
2017,07,17,04,22,8.40
2017,07,17,04,23,8.40
2017,07,17,04,24,8.40
2017,07,17,04,25,8.40
2017,07,17,04,26,8.40
2017,07,17,04,27,8.40
2017,07,17,04,28,8.40
2017,07,17,04,29,8.30
2017,07,17,04,30,8.30
2017,07,17,04,31,8.30
2017,07,17,04,32,8.30
2017,07,17,04,33,8.30
2017,07,17,04,34,8.20
2017,07,17,04,35,8.20
2017,07,17,04,36,8.20
2017,07,17,04,37,8.20
2017,07,17,04,38,8.20
2017,07,17,04,39,8.20
2017,07,17,04,40,8.20
2017,07,17,04,41,8.10
2017,07,17,04,42,8.10
2017,07,17,04,43,8.10
2017,07,17,04,44,8.10
2017,07,17,04,45,8.10
2017,07,17,04,46,8.10
2017,07,17,04,47,8.10
2017,07,17,04,48,8.10
2017,07,17,04,49,8.10
2017,07,17,04,50,8.10
2017,07,17,04,51,8.20
2017,07,17,04,52,8.20
2017,07,17,04,53,8.20
2017,07,17,04,54,8.20
2017,07,17,04,55,8.30
2017,07,17,04,56,8.30
2017,07,17,04,57,8.30
2017,07,17,04,58,8.30
2017,07,17,04,59,8.30
2017,07,17,05,00,8.30
2017,07,17,05,01,8.30
2017,07,17,05,02,8.30
2017,07,17,05,03,8.30
2017,07,17,05,04,8.30
2017,07,17,05,05,8.20
2017,07,17,05,06,8.20
2017,07,17,05,07,8.20
2017,07,17,05,08,8.20
2017,07,17,05,09,8.20
2017,07,17,05,10,8.10
2017,07,17,05,11,8.10
2017,07,17,05,12,8.10
2017,07,17,05,13,8.10
2017,07,17,05,14,8.10
2017,07,17,05,15,8.10
2017,07,17,05,16,8.10
2017,07,17,05,17,8.00
2017,07,17,05,18,8.00
2017,07,17,05,19,8.00
2017,07,17,05,20,8.00
2017,07,17,05,21,8.00
2017,07,17,05,22,8.00
2017,07,17,05,23,8.00
2017,07,17,05,24,8.00
2017,07,17,05,25,8.00
2017,07,17,05,26,8.00
2017,07,17,05,27,8.00
2017,07,17,05,28,7.90
2017,07,17,05,29,7.90
2017,07,17,05,30,7.90
2017,07,17,05,31,7.90
2017,07,17,05,32,7.90
2017,07,17,05,33,7.80
2017,07,17,05,34,7.80
2017,07,17,05,35,7.80
2017,07,17,05,36,7.80
2017,07,17,05,37,7.80
2017,07,17,05,38,7.80
2017,07,17,05,39,7.80
2017,07,17,05,40,7.80
2017,07,17,05,41,7.70
2017,07,17,05,42,7.70
2017,07,17,05,43,7.70
2017,07,17,05,44,7.70
2017,07,17,05,45,7.70
2017,07,17,05,46,7.70
2017,07,17,05,47,7.70
2017,07,17,05,48,7.70
2017,07,17,05,49,7.70
2017,07,17,05,50,7.70
2017,07,17,05,51,7.80
2017,07,17,05,52,7.80
2017,07,17,05,53,7.80
2017,07,17,05,54,7.80
2017,07,17,05,55,7.80
2017,07,17,05,56,7.80
2017,07,17,05,57,7.80
2017,07,17,05,58,7.80
2017,07,17,05,59,7.80
2017,07,17,06,00,7.80
2017,07,17,06,01,7.80
2017,07,17,06,02,7.80
2017,07,17,06,03,7.80
2017,07,17,06,04,7.80
2017,07,17,06,05,7.80
2017,07,17,06,06,7.80
2017,07,17,06,07,7.80
2017,07,17,06,08,7.80
2017,07,17,06,09,7.80
2017,07,17,06,10,7.80
2017,07,17,06,11,7.80
2017,07,17,06,12,7.80
2017,07,17,06,13,7.80
2017,07,17,06,14,7.80
2017,07,17,06,15,7.80
2017,07,17,06,16,7.80
2017,07,17,06,17,7.80
2017,07,17,06,18,7.80
2017,07,17,06,19,7.80
2017,07,17,06,20,7.80
2017,07,17,06,21,7.90
2017,07,17,06,22,7.90
2017,07,17,06,23,7.90
2017,07,17,06,24,7.90
2017,07,17,06,25,7.90
2017,07,17,06,26,7.90
2017,07,17,06,27,7.90
2017,07,17,06,28,7.90
2017,07,17,06,29,7.90
2017,07,17,06,30,7.90
2017,07,17,06,31,8.00
2017,07,17,06,32,8.00
2017,07,17,06,33,8.10
2017,07,17,06,34,8.10
2017,07,17,06,35,8.10
2017,07,17,06,36,8.10
2017,07,17,06,37,8.10
2017,07,17,06,38,8.10
2017,07,17,06,39,8.20
2017,07,17,06,40,8.20
2017,07,17,06,41,8.30
2017,07,17,06,42,8.30
2017,07,17,06,43,8.30
2017,07,17,06,44,8.30
2017,07,17,06,45,8.30
2017,07,17,06,46,8.30
2017,07,17,06,47,8.30
2017,07,17,06,48,8.30
2017,07,17,06,49,8.20
2017,07,17,06,50,8.20
2017,07,17,06,51,8.30
2017,07,17,06,52,8.30
2017,07,17,06,53,8.30
2017,07,17,06,54,8.40
2017,07,17,06,55,8.40
2017,07,17,06,56,8.40
2017,07,17,06,57,8.40
2017,07,17,06,58,8.40
2017,07,17,06,59,8.40
2017,07,17,07,00,8.40
2017,07,17,07,01,8.40
2017,07,17,07,02,8.40
2017,07,17,07,03,8.40
2017,07,17,07,04,8.40
2017,07,17,07,05,8.40
2017,07,17,07,06,8.40
2017,07,17,07,07,8.40
2017,07,17,07,08,8.40
2017,07,17,07,09,8.40
2017,07,17,07,10,8.40
2017,07,17,07,11,8.40
2017,07,17,07,12,8.40
2017,07,17,07,13,8.40
2017,07,17,07,14,8.40
2017,07,17,07,15,8.40
2017,07,17,07,16,8.40
2017,07,17,07,17,8.50
2017,07,17,07,18,8.50
2017,07,17,07,19,8.50
2017,07,17,07,20,8.50
2017,07,17,07,21,8.50
2017,07,17,07,22,8.50
2017,07,17,07,23,8.50
2017,07,17,07,24,8.50
2017,07,17,07,25,8.50
2017,07,17,07,26,8.60
2017,07,17,07,27,8.60
2017,07,17,07,28,8.60
2017,07,17,07,29,8.70
2017,07,17,07,30,8.70
2017,07,17,07,31,8.80
2017,07,17,07,32,8.80
2017,07,17,07,33,8.90
2017,07,17,07,34,8.90
2017,07,17,07,35,9.00
2017,07,17,07,36,9.00
2017,07,17,07,37,9.10
2017,07,17,07,38,9.20
2017,07,17,07,39,9.20
2017,07,17,07,40,9.30
2017,07,17,07,41,9.30
2017,07,17,07,42,9.30
2017,07,17,07,43,9.30
2017,07,17,07,44,9.40
2017,07,17,07,45,9.40
2017,07,17,07,46,9.40
2017,07,17,07,47,9.50
2017,07,17,07,48,9.50
2017,07,17,07,49,9.60
2017,07,17,07,50,9.70
2017,07,17,07,51,9.80
2017,07,17,07,52,9.90
2017,07,17,07,53,9.90
2017,07,17,07,54,10.00
2017,07,17,07,55,10.10
2017,07,17,07,56,10.10
2017,07,17,07,57,10.20
2017,07,17,07,58,10.20
2017,07,17,07,59,10.30
2017,07,17,08,00,10.30
2017,07,17,08,01,10.40
2017,07,17,08,02,10.40
2017,07,17,08,03,10.40
2017,07,17,08,04,10.50
2017,07,17,08,05,10.50
2017,07,17,08,06,10.60
2017,07,17,08,07,10.70
2017,07,17,08,08,10.80
2017,07,17,08,09,10.90
2017,07,17,08,10,10.90
2017,07,17,08,11,11.00
2017,07,17,08,12,11.10
2017,07,17,08,13,11.10
2017,07,17,08,14,11.20
2017,07,17,08,15,11.30
2017,07,17,08,16,11.30
2017,07,17,08,17,11.40
2017,07,17,08,18,11.50
2017,07,17,08,19,11.50
2017,07,17,08,20,11.60
2017,07,17,08,21,11.70
2017,07,17,08,22,11.80
2017,07,17,08,23,11.90
2017,07,17,08,24,12.00
2017,07,17,08,25,12.10
2017,07,17,08,26,12.20
2017,07,17,08,27,12.30
2017,07,17,08,28,12.40
2017,07,17,08,29,12.50
2017,07,17,08,30,12.60
2017,07,17,08,31,12.70
2017,07,17,08,32,12.70
2017,07,17,08,33,12.80
2017,07,17,08,34,12.90
2017,07,17,08,35,13.00
2017,07,17,08,36,13.10
2017,07,17,08,37,13.10
2017,07,17,08,38,13.20
2017,07,17,08,39,13.30
2017,07,17,08,40,13.40
2017,07,17,08,41,13.50
2017,07,17,08,42,13.60
2017,07,17,08,43,13.70
2017,07,17,08,44,13.70
2017,07,17,08,45,13.80
2017,07,17,08,46,13.90
2017,07,17,08,47,13.90
2017,07,17,08,48,14.00
2017,07,17,08,49,14.10
2017,07,17,08,50,14.10
2017,07,17,08,51,14.20
2017,07,17,08,52,14.30
2017,07,17,08,53,14.30
2017,07,17,08,54,14.30
2017,07,17,08,55,14.40
2017,07,17,08,56,14.40
2017,07,17,08,57,14.40
2017,07,17,08,58,14.50
2017,07,17,08,59,14.50
2017,07,17,09,00,14.50
2017,07,17,09,01,14.50
2017,07,17,09,02,14.50
2017,07,17,09,03,14.60
2017,07,17,09,04,14.60
2017,07,17,09,05,14.60
2017,07,17,09,06,14.60
2017,07,17,09,07,14.60
2017,07,17,09,08,14.60
2017,07,17,09,09,14.60
2017,07,17,09,10,14.60
2017,07,17,09,11,14.50
2017,07,17,09,12,14.50
2017,07,17,09,13,14.40
2017,07,17,09,14,14.50
2017,07,17,09,15,14.50
2017,07,17,09,16,14.50
2017,07,17,09,17,14.60
2017,07,17,09,18,14.60
2017,07,17,09,19,14.70
2017,07,17,09,20,14.60
2017,07,17,09,21,14.60
2017,07,17,09,22,14.70
2017,07,17,09,23,14.70
2017,07,17,09,24,14.70
2017,07,17,09,25,14.70
2017,07,17,09,26,14.70
2017,07,17,09,27,14.70
2017,07,17,09,28,14.70
2017,07,17,09,29,14.70
2017,07,17,09,30,14.70
2017,07,17,09,31,14.70
2017,07,17,09,32,14.70
2017,07,17,09,33,14.70
2017,07,17,09,34,14.70
2017,07,17,09,35,14.70
2017,07,17,09,36,14.70
2017,07,17,09,37,14.70
2017,07,17,09,38,14.70
2017,07,17,09,39,14.80
2017,07,17,09,40,14.80
2017,07,17,09,41,14.80
2017,07,17,09,42,14.90
2017,07,17,09,43,15.00
2017,07,17,09,44,15.10
2017,07,17,09,45,15.20
2017,07,17,09,46,15.10
2017,07,17,09,47,15.10
2017,07,17,09,48,15.10
2017,07,17,09,49,15.10
2017,07,17,09,50,15.10
2017,07,17,09,51,15.20
2017,07,17,09,52,15.20
2017,07,17,09,53,15.20
2017,07,17,09,54,15.10
2017,07,17,09,55,15.10
2017,07,17,09,56,15.10
2017,07,17,09,57,15.10
2017,07,17,09,58,15.10
2017,07,17,09,59,15.10
2017,07,17,10,00,15.20
2017,07,17,10,01,15.30
2017,07,17,10,02,15.40
2017,07,17,10,03,15.40
2017,07,17,10,04,15.50
2017,07,17,10,05,15.50
2017,07,17,10,06,15.50
2017,07,17,10,07,15.40
2017,07,17,10,08,15.40
2017,07,17,10,09,15.30
2017,07,17,10,10,15.30
2017,07,17,10,11,15.30
2017,07,17,10,12,15.20
2017,07,17,10,13,15.10
2017,07,17,10,14,15.10
2017,07,17,10,15,15.00
2017,07,17,10,16,15.00
2017,07,17,10,17,14.90
2017,07,17,10,18,14.90
2017,07,17,10,19,14.90
2017,07,17,10,20,15.00
2017,07,17,10,21,15.00
2017,07,17,10,22,15.10
2017,07,17,10,23,15.20
2017,07,17,10,24,15.20
2017,07,17,10,25,15.20
2017,07,17,10,26,15.20
2017,07,17,10,27,15.30
2017,07,17,10,28,15.40
2017,07,17,10,29,15.40
2017,07,17,10,30,15.40
2017,07,17,10,31,15.50
2017,07,17,10,32,15.50
2017,07,17,10,33,15.50
2017,07,17,10,34,15.50
2017,07,17,10,35,15.40
2017,07,17,10,36,15.40
2017,07,17,10,37,15.40
2017,07,17,10,38,15.50
2017,07,17,10,39,15.50
2017,07,17,10,40,15.50
2017,07,17,10,41,15.50
2017,07,17,10,42,15.40
2017,07,17,10,43,15.40
2017,07,17,10,44,15.30
2017,07,17,10,45,15.30
2017,07,17,10,46,15.30
2017,07,17,10,47,15.20
2017,07,17,10,48,15.30
2017,07,17,10,49,15.30
2017,07,17,10,50,15.30
2017,07,17,10,51,15.20
2017,07,17,10,52,15.20
2017,07,17,10,53,15.30
2017,07,17,10,54,15.30
2017,07,17,10,55,15.40
2017,07,17,10,56,15.50
2017,07,17,10,57,15.40
2017,07,17,10,58,15.50
2017,07,17,10,59,15.50
2017,07,17,11,00,15.60
2017,07,17,11,01,15.70
2017,07,17,11,02,15.80
2017,07,17,11,03,15.80
2017,07,17,11,04,15.90
2017,07,17,11,05,15.90
2017,07,17,11,06,16.00
2017,07,17,11,07,16.10
2017,07,17,11,08,16.20
2017,07,17,11,09,16.30
2017,07,17,11,10,16.40
2017,07,17,11,11,16.40
2017,07,17,11,12,16.40
2017,07,17,11,13,16.40
2017,07,17,11,14,16.40
2017,07,17,11,15,16.30
2017,07,17,11,16,16.40
2017,07,17,11,17,16.40
2017,07,17,11,18,16.50
2017,07,17,11,19,16.50
2017,07,17,11,20,16.50
2017,07,17,11,21,16.50
2017,07,17,11,22,16.50
2017,07,17,11,23,16.50
2017,07,17,11,24,16.50
2017,07,17,11,25,16.60
2017,07,17,11,26,16.60
2017,07,17,11,27,16.70
2017,07,17,11,28,16.70
2017,07,17,11,29,16.70
2017,07,17,11,30,16.70
2017,07,17,11,31,16.80
2017,07,17,11,32,16.80
2017,07,17,11,33,16.80
2017,07,17,11,34,16.80
2017,07,17,11,35,16.80
2017,07,17,11,36,16.80
2017,07,17,11,37,16.80
2017,07,17,11,38,16.90
2017,07,17,11,39,16.90
2017,07,17,11,40,17.00
2017,07,17,11,41,17.00
2017,07,17,11,42,17.10
2017,07,17,11,43,17.10
2017,07,17,11,44,17.10
2017,07,17,11,45,17.10
2017,07,17,11,46,17.10
2017,07,17,11,47,17.10
2017,07,17,11,48,17.10
2017,07,17,11,49,17.10
2017,07,17,11,50,17.20
2017,07,17,11,51,17.20
2017,07,17,11,52,17.20
2017,07,17,11,53,17.20
2017,07,17,11,54,17.20
2017,07,17,11,55,17.30
2017,07,17,11,56,17.40
2017,07,17,11,57,17.40
2017,07,17,11,58,17.50
2017,07,17,11,59,17.60
2017,07,17,12,00,17.60
2017,07,17,12,01,17.70
2017,07,17,12,02,17.80
2017,07,17,12,03,17.90
2017,07,17,12,04,18.00
2017,07,17,12,05,18.10
2017,07,17,12,06,18.10
2017,07,17,12,07,18.20
2017,07,17,12,08,18.30
2017,07,17,12,09,18.40
2017,07,17,12,10,18.50
2017,07,17,12,11,18.60
2017,07,17,12,12,18.60
2017,07,17,12,13,18.70
2017,07,17,12,14,18.70
2017,07,17,12,15,18.60
2017,07,17,12,16,18.60
2017,07,17,12,17,18.60
2017,07,17,12,18,18.50
2017,07,17,12,19,18.40
2017,07,17,12,20,18.40
2017,07,17,12,21,18.30
2017,07,17,12,22,18.20
2017,07,17,12,23,18.20
2017,07,17,12,24,18.20
2017,07,17,12,25,18.10
2017,07,17,12,26,18.10
2017,07,17,12,27,18.10
2017,07,17,12,28,18.10
2017,07,17,12,29,18.10
2017,07,17,12,30,18.10
2017,07,17,12,31,18.20
2017,07,17,12,32,18.20
2017,07,17,12,33,18.20
2017,07,17,12,34,18.20
2017,07,17,12,35,18.30
2017,07,17,12,36,18.30
2017,07,17,12,37,18.40
2017,07,17,12,38,18.40
2017,07,17,12,39,18.40
2017,07,17,12,40,18.40
2017,07,17,12,41,18.50
2017,07,17,12,42,18.50
2017,07,17,12,43,18.50
2017,07,17,12,44,18.60
2017,07,17,12,45,18.70
2017,07,17,12,46,18.70
2017,07,17,12,47,18.70
2017,07,17,12,48,18.70
2017,07,17,12,49,18.70
2017,07,17,12,50,18.80
2017,07,17,12,51,18.80
2017,07,17,12,52,18.90
2017,07,17,12,53,19.00
2017,07,17,12,54,19.10
2017,07,17,12,55,19.20
2017,07,17,12,56,19.20
2017,07,17,12,57,19.30
2017,07,17,12,58,19.40
2017,07,17,12,59,19.50
2017,07,17,13,00,19.50
2017,07,17,13,01,19.60
2017,07,17,13,02,19.60
2017,07,17,13,03,19.60
2017,07,17,13,04,19.60
2017,07,17,13,05,19.60
2017,07,17,13,06,19.60
2017,07,17,13,07,19.60
2017,07,17,13,08,19.60
2017,07,17,13,09,19.60
2017,07,17,13,10,19.50
2017,07,17,13,11,19.50
2017,07,17,13,12,19.50
2017,07,17,13,13,19.50
2017,07,17,13,14,19.50
2017,07,17,13,15,19.50
2017,07,17,13,16,19.40
2017,07,17,13,17,19.40
2017,07,17,13,18,19.40
2017,07,17,13,19,19.40
2017,07,17,13,20,19.40
2017,07,17,13,21,19.30
2017,07,17,13,22,19.30
2017,07,17,13,23,19.30
2017,07,17,13,24,19.30
2017,07,17,13,25,19.30
2017,07,17,13,26,19.30
2017,07,17,13,27,19.20
2017,07,17,13,28,19.20
2017,07,17,13,29,19.20
2017,07,17,13,30,19.30
2017,07,17,13,31,19.30
2017,07,17,13,32,19.40
2017,07,17,13,33,19.50
2017,07,17,13,34,19.60
2017,07,17,13,35,19.60
2017,07,17,13,36,19.50
2017,07,17,13,37,19.50
2017,07,17,13,38,19.50
2017,07,17,13,39,19.40
2017,07,17,13,40,19.40
2017,07,17,13,41,19.40
2017,07,17,13,42,19.40
2017,07,17,13,43,19.40
2017,07,17,13,44,19.40
2017,07,17,13,45,19.50
2017,07,17,13,46,19.60
2017,07,17,13,47,19.70
2017,07,17,13,48,19.70
2017,07,17,13,49,19.70
2017,07,17,13,50,19.80
2017,07,17,13,51,19.80
2017,07,17,13,52,19.90
2017,07,17,13,53,19.90
2017,07,17,13,54,20.00
2017,07,17,13,55,20.10
2017,07,17,13,56,20.30
2017,07,17,13,57,20.40
2017,07,17,13,58,20.50
2017,07,17,13,59,20.60
2017,07,17,14,00,20.60
2017,07,17,14,01,20.60
2017,07,17,14,02,20.70
2017,07,17,14,03,20.70
2017,07,17,14,04,20.60
2017,07,17,14,05,20.60
2017,07,17,14,06,20.60
2017,07,17,14,07,20.60
2017,07,17,14,08,20.60
2017,07,17,14,09,20.60
2017,07,17,14,10,20.60
2017,07,17,14,11,20.60
2017,07,17,14,12,20.70
2017,07,17,14,13,20.80
2017,07,17,14,14,20.90
2017,07,17,14,15,20.90
2017,07,17,14,16,21.00
2017,07,17,14,17,21.00
2017,07,17,14,18,21.00
2017,07,17,14,19,21.00
2017,07,17,14,20,20.90
2017,07,17,14,21,20.90
2017,07,17,14,22,20.90
2017,07,17,14,23,20.90
2017,07,17,14,24,20.90
2017,07,17,14,25,20.90
2017,07,17,14,26,21.00
2017,07,17,14,27,21.00
2017,07,17,14,28,21.10
2017,07,17,14,29,21.10
2017,07,17,14,30,21.10
2017,07,17,14,31,21.10
2017,07,17,14,32,21.10
2017,07,17,14,33,21.00
2017,07,17,14,34,20.90
2017,07,17,14,35,20.80
2017,07,17,14,36,20.60
2017,07,17,14,37,20.60
2017,07,17,14,38,20.60
2017,07,17,14,39,20.70
2017,07,17,14,40,20.70
2017,07,17,14,41,20.80
2017,07,17,14,42,20.90
2017,07,17,14,43,20.90
2017,07,17,14,44,21.00
2017,07,17,14,45,21.00
2017,07,17,14,46,20.90
2017,07,17,14,47,20.80
2017,07,17,14,48,20.70
2017,07,17,14,49,20.60
2017,07,17,14,50,20.60
2017,07,17,14,51,20.60
2017,07,17,14,52,20.70
2017,07,17,14,53,20.80
2017,07,17,14,54,20.90
2017,07,17,14,55,21.00
2017,07,17,14,56,21.10
2017,07,17,14,57,21.10
2017,07,17,14,58,21.00
2017,07,17,14,59,21.00
2017,07,17,15,00,20.90
2017,07,17,15,01,20.80
2017,07,17,15,02,20.70
2017,07,17,15,03,20.60
2017,07,17,15,04,20.50
2017,07,17,15,05,20.30
2017,07,17,15,06,20.20
2017,07,17,15,07,20.00
2017,07,17,15,08,19.90
2017,07,17,15,09,19.70
2017,07,17,15,10,19.60
2017,07,17,15,11,19.50
2017,07,17,15,12,19.30
2017,07,17,15,13,19.10
2017,07,17,15,14,19.00
2017,07,17,15,15,18.80
2017,07,17,15,16,18.80
2017,07,17,15,17,18.70
2017,07,17,15,18,18.60
2017,07,17,15,19,18.60
2017,07,17,15,20,18.60
2017,07,17,15,21,18.60
2017,07,17,15,22,18.60
2017,07,17,15,23,18.60
2017,07,17,15,24,18.60
2017,07,17,15,25,18.60
2017,07,17,15,26,18.60
2017,07,17,15,27,18.60
2017,07,17,15,28,18.60
2017,07,17,15,29,18.50
2017,07,17,15,30,18.40
2017,07,17,15,31,18.30
2017,07,17,15,32,18.10
2017,07,17,15,33,18.10
2017,07,17,15,34,18.00
2017,07,17,15,35,18.00
2017,07,17,15,36,18.10
2017,07,17,15,37,18.10
2017,07,17,15,38,18.20
2017,07,17,15,39,18.20
2017,07,17,15,40,18.20
2017,07,17,15,41,18.20
2017,07,17,15,42,18.10
2017,07,17,15,43,18.00
2017,07,17,15,44,17.90
2017,07,17,15,45,17.80
2017,07,17,15,46,17.80
2017,07,17,15,47,17.70
2017,07,17,15,48,17.70
2017,07,17,15,49,17.70
2017,07,17,15,50,17.70
2017,07,17,15,51,17.80
2017,07,17,15,52,18.00
2017,07,17,15,53,18.20
2017,07,17,15,54,18.30
2017,07,17,15,55,18.50
2017,07,17,15,56,18.70
2017,07,17,15,57,18.90
2017,07,17,15,58,19.10
2017,07,17,15,59,19.20
2017,07,17,16,00,19.40
2017,07,17,16,01,19.50
2017,07,17,16,02,19.60
2017,07,17,16,03,19.70
2017,07,17,16,04,19.80
2017,07,17,16,05,19.80
2017,07,17,16,06,19.90
2017,07,17,16,07,19.90
2017,07,17,16,08,20.00
2017,07,17,16,09,20.00
2017,07,17,16,10,20.00
2017,07,17,16,11,20.00
2017,07,17,16,12,20.00
2017,07,17,16,13,19.90
2017,07,17,16,14,19.90
2017,07,17,16,15,19.90
2017,07,17,16,16,19.90
2017,07,17,16,17,19.90
2017,07,17,16,18,20.00
2017,07,17,16,19,20.10
2017,07,17,16,20,20.20
2017,07,17,16,21,20.20
2017,07,17,16,22,20.20
2017,07,17,16,23,20.30
2017,07,17,16,24,20.30
2017,07,17,16,25,20.40
2017,07,17,16,26,20.50
2017,07,17,16,27,20.50
2017,07,17,16,28,20.60
2017,07,17,16,29,20.60
2017,07,17,16,30,20.60
2017,07,17,16,31,20.60
2017,07,17,16,32,20.60
2017,07,17,16,33,20.50
2017,07,17,16,34,20.40
2017,07,17,16,35,20.20
2017,07,17,16,36,20.00
2017,07,17,16,37,19.90
2017,07,17,16,38,19.90
2017,07,17,16,39,19.80
2017,07,17,16,40,19.70
2017,07,17,16,41,19.70
2017,07,17,16,42,19.70
2017,07,17,16,43,19.70
2017,07,17,16,44,19.70
2017,07,17,16,45,19.70
2017,07,17,16,46,19.70
2017,07,17,16,47,19.70
2017,07,17,16,48,19.70
2017,07,17,16,49,19.80
2017,07,17,16,50,19.80
2017,07,17,16,51,19.80
2017,07,17,16,52,19.80
2017,07,17,16,53,19.70
2017,07,17,16,54,19.60
2017,07,17,16,55,19.50
2017,07,17,16,56,19.40
2017,07,17,16,57,19.40
2017,07,17,16,58,19.30
2017,07,17,16,59,19.30
2017,07,17,17,00,19.20
2017,07,17,17,01,19.10
2017,07,17,17,02,19.10
2017,07,17,17,03,19.10
2017,07,17,17,04,19.10
2017,07,17,17,05,19.10
2017,07,17,17,06,19.20
2017,07,17,17,07,19.20
2017,07,17,17,08,19.30
2017,07,17,17,09,19.30
2017,07,17,17,10,19.40
2017,07,17,17,11,19.40
2017,07,17,17,12,19.30
2017,07,17,17,13,19.30
2017,07,17,17,14,19.30
2017,07,17,17,15,19.30
2017,07,17,17,16,19.30
2017,07,17,17,17,19.30
2017,07,17,17,18,19.30
2017,07,17,17,19,19.30
2017,07,17,17,20,19.40
2017,07,17,17,21,19.50
2017,07,17,17,22,19.60
2017,07,17,17,23,19.60
2017,07,17,17,24,19.60
2017,07,17,17,25,19.70
2017,07,17,17,26,19.80
2017,07,17,17,27,19.80
2017,07,17,17,28,19.80
2017,07,17,17,29,19.80
2017,07,17,17,30,19.80
2017,07,17,17,31,19.80
2017,07,17,17,32,19.80
2017,07,17,17,33,19.80
2017,07,17,17,34,19.80
2017,07,17,17,35,19.80
2017,07,17,17,36,19.80
2017,07,17,17,37,19.90